Location: Alafon
(8.4500°N, 4.2333°E)
Time: 20:38:54
(UTC+00:00)

Vanguard 2 - Pass Details

Date: 04 August 2021
Orbit: 553 x 2937 km, 32.9° (Epoch: 27 September)

Event Time Altitude Azimuth Distance (km) Brightness Sun altitude
Rises 11:35:49 0° 288° (WNW) 4,534 11.5 80.8°
Reaches altitude 10° 11:38:33 10° 282° (WNW) 3,836 11.2 81.0°
Maximum altitude 11:48:44 47° 211° (SSW) 2,750 11.0 81.3°
Drops below altitude 10° 12:04:02 10° 143° (SE) 5,610 12.0 80.6°
Sets 12:09:05 0° 138° (SE) 6,752 12.2 80.1°
